Location: Seattle
(47.6064°N, 122.3308°W)
Time: 03:07:40
(UTC-08:00)

N. Korean satellite - Pass Details

Date: 31 October 2020
Orbit: 453 x 503 km, 97.2° (Epoch: 03 December)

Event Time Altitude Azimuth Distance (km) Brightness Sun altitude
Rises 06:03:31 0° 24° (NNE) 2,479 10.5 -18.8°
Reaches altitude 10° 06:05:50 10° 38° (NE) 1,599 9.7 -18.5°
Maximum altitude 06:08:41 24° 95° (E) 981 9.0 -18.0°
Drops below altitude 10° 06:11:31 10° 151° (SSE) 1,590 9.6 -17.5°
Sets 06:13:48 0° 166° (SSE) 2,462 10.4 -17.1°
